TimeCST,TemperatureF,Dew PointF,Humidity,Sea Level PressureIn,VisibilityMPH,Wind Direction,Wind SpeedMPH,Gust SpeedMPH,PrecipitationIn,Events,Conditions,WindDirDegrees,DateUTC
12:10 AM,53.6,51.8,94,29.84,10.0,SW,12.7,-,N/A,,Partly Cloudy,220,2013-02-11 06:10:00
12:56 AM,52.9,50.9,93,29.84,10.0,SW,12.7,-,N/A,,Clear,230,2013-02-11 06:56:00
1:56 AM,52.0,50.0,93,29.86,10.0,SW,13.8,-,N/A,,Clear,230,2013-02-11 07:56:00
2:56 AM,52.0,43.9,74,29.87,10.0,WSW,16.1,-,N/A,,Clear,240,2013-02-11 08:56:00
3:56 AM,48.9,39.9,71,29.89,10.0,WSW,12.7,-,N/A,,Clear,250,2013-02-11 09:56:00
4:56 AM,46.9,36.0,66,29.92,10.0,WSW,13.8,-,N/A,,Clear,250,2013-02-11 10:56:00
5:56 AM,45.9,34.0,63,-9999,10.0,West,10.4,-,N/A,,Clear,280,2013-02-11 11:56:00
6:56 AM,41.9,31.1,66,30.01,10.0,West,11.5,19.6,N/A,,Clear,280,2013-02-11 12:56:00
7:56 AM,43.0,32.0,65,30.04,10.0,West,15.0,20.7,N/A,,Partly Cloudy,270,2013-02-11 13:56:00
8:56 AM,43.9,30.0,58,30.06,10.0,West,15.0,-,N/A,,Clear,270,2013-02-11 14:56:00
9:56 AM,45.9,30.0,54,30.08,10.0,West,13.8,19.6,N/A,,Clear,270,2013-02-11 15:56:00
10:56 AM,47.8,32.0,54,30.07,10.0,West,13.8,20.7,N/A,,Partly Cloudy,260,2013-02-11 16:56:00
11:56 AM,50.0,32.0,50,30.07,10.0,WSW,17.3,23.0,N/A,,Clear,250,2013-02-11 17:56:00
12:56 PM,50.9,32.0,48,30.06,10.0,West,17.3,-,N/A,,Clear,270,2013-02-11 18:56:00
1:56 PM,54.0,29.1,39,30.06,10.0,West,17.3,23.0,N/A,,Clear,270,2013-02-11 19:56:00
2:56 PM,54.0,30.0,40,30.06,10.0,West,17.3,25.3,N/A,,Clear,270,2013-02-11 20:56:00
3:56 PM,52.0,27.1,38,30.07,10.0,West,17.3,23.0,N/A,,Clear,270,2013-02-11 21:56:00
4:56 PM,50.0,27.1,41,30.07,10.0,West,16.1,-,N/A,,Clear,280,2013-02-11 22:56:00
5:56 PM,45.0,28.0,52,30.09,10.0,WNW,5.8,-,N/A,,Clear,290,2013-02-11 23:56:00
6:56 PM,39.9,29.1,65,30.11,10.0,WSW,6.9,-,N/A,,Clear,240,2013-02-12 00:56:00
7:56 PM,39.9,29.1,65,30.12,10.0,WSW,4.6,-,N/A,,Clear,240,2013-02-12 01:56:00
8:56 PM,37.9,29.1,71,30.14,10.0,Calm,Calm,-,N/A,,Clear,0,2013-02-12 02:56:00
9:56 PM,36.9,28.0,70,30.15,10.0,West,5.8,-,N/A,,Clear,260,2013-02-12 03:56:00
10:56 PM,37.9,29.1,71,30.16,10.0,WSW,6.9,-,N/A,,Clear,240,2013-02-12 04:56:00
11:56 PM,37.9,30.0,73,30.16,10.0,West,4.6,-,N/A,,Clear,260,2013-02-12 05:56:00